Temp_Advection
nan nan nan nan nan nan nan nan nan nan nan nan nan nan nan nan nan nan nan nan nan nan
nan 0 0 0 0 0 0 0 0 0 0 -0 -0 0 0 0 0 0 0 0 0 nan
nan 0 0 0 0 0 0 0 0 -0 -0 0 0 0 0 0 0 0 0 0 0 nan
nan 0 0 0 0 0 0 0 -0 -0 0 0 0 0 0 0 0 0 0 0 0 nan
nan 0 0 0 0 0 0 -0 0 0 0 0 0 0 0 0 0 0 0 0 0 nan
nan 0 0 0 0 0 0 0 0 0 0 0 0 0 0 0 0 0 0 0 0 nan
nan 0 0 0 0 0 0 0 0 0 0 0 0 0 0 0 0 0 0 0 0 nan
nan -0 -0 -0 0 0 0 0 0 0 0 0 0 0 0 0 0 -0 0 0 0 nan
nan 0 0 0 0 0 0 0 0 0 0 0 0 0 0 0 0 0 0 0 0 nan
nan 0 0 0 0 0 0 0 0 0 0 0 0 0 0 0 0 0 0 -0 -0 nan
nan 0 0 0 0 0 0 0 0 0 0 0 0 0 0 0 0 -0 -0 0 -0 nan
nan 0 0 0 0 0 0 0 0 0 0 0 0 0 0 0 -0 -0 -0 0 0 nan
nan 1 1 1 1 0 0 0 0 0 0 0 0 0 0 0 0 -0 -0 -0 -0 nan
nan nan nan nan nan nan nan nan nan nan nan nan nan nan nan nan nan nan nan nan nan nan
Wind_Speed
20 18 15 13 13 14 13 13 13 13 12 13 13 13 13 13 13 14 14 14 15 16
20 18 16 14 15 15 15 15 14 14 13 12 13 13 12 12 12 13 14 15 15 16
20 19 16 15 16 14 15 15 14 13 13 13 14 13 12 12 13 14 15 16 16 16
20 19 16 16 16 13 13 14 14 13 13 12 13 14 14 14 15 16 17 17 17 17
20 17 16 15 14 14 14 14 13 13 12 13 14 15 15 16 16 17 18 18 17 17
17 16 15 14 13 14 13 13 13 12 13 14 15 16 16 17 18 18 18 18 17 17
15 14 13 13 13 13 12 13 12 13 14 15 16 17 18 17 17 17 17 16 16 16
14 13 12 12 13 13 13 14 14 14 15 16 17 17 17 16 16 16 16 15 15 14
12 12 13 14 14 14 14 14 14 15 15 16 16 16 15 15 15 15 14 13 14 14
14 14 14 14 15 15 15 15 15 16 16 16 16 15 15 15 14 14 15 16 17 19
14 14 15 15 15 16 16 17 17 17 16 15 15 15 14 14 15 17 19 20 22 23
16 17 17 17 17 17 17 17 17 16 15 14 14 14 14 16 19 22 24 24 24 24
17 18 18 17 17 17 17 17 16 16 15 15 14 15 17 19 22 25 26 26 26 24
17 17 16 17 17 16 16 16 16 16 16 16 18 20 20 20 23 25 27 28 28 26
Wind_Direction
222 226 228 235 237 234 239 245 250 261 268 274 285 292 294 294 293 293 292 289 286 283
228 232 233 234 235 236 241 243 250 257 270 281 285 288 289 292 294 293 292 290 286 285
229 231 231 237 240 235 239 245 251 260 269 279 285 285 285 288 289 289 289 290 288 286
228 229 232 234 235 235 237 243 252 262 270 275 277 279 283 286 287 288 287 287 285 284
225 231 233 230 228 231 236 248 255 263 272 276 278 283 288 288 288 288 288 288 286 285
222 223 222 224 228 236 242 251 259 269 276 279 281 286 288 290 292 290 288 288 288 289
213 213 220 228 235 242 251 260 266 270 274 280 287 290 291 291 289 288 288 288 289 289
211 219 228 239 247 251 253 258 265 272 280 287 290 291 290 288 286 287 286 287 289 292
222 230 237 242 246 250 254 261 270 278 283 288 289 287 284 283 283 284 287 291 294 296
228 234 243 248 252 257 263 269 276 281 286 286 285 281 277 275 276 280 285 290 294 294
240 249 256 260 264 267 270 273 277 281 284 283 278 276 276 276 282 288 293 295 295 296
252 259 267 272 271 269 270 271 274 276 275 272 272 274 277 285 290 291 293 293 293 296
262 264 265 264 263 263 265 269 273 275 275 276 275 278 283 287 288 290 293 293 295 295
261 260 260 262 265 268 273 276 277 279 279 280 282 284 285 286 286 288 292 293 295 295
Height
1524 1526 1525 1526 1527 1530 1531 1533 1534 1536 1533 1533 1532 1531 1531 1529 1529 1530 1529 1528 1526 1525
1521 1521 1521 1522 1524 1524 1526 1528 1530 1530 1530 1529 1529 1528 1527 1526 1525 1525 1526 1525 1523 1521
1517 1518 1517 1518 1521 1519 1521 1524 1526 1526 1525 1524 1526 1524 1523 1521 1520 1522 1521 1521 1520 1517
1513 1514 1513 1515 1516 1516 1518 1521 1521 1521 1520 1519 1520 1521 1518 1517 1516 1517 1516 1515 1515 1512
1509 1511 1513 1512 1512 1514 1515 1518 1517 1516 1515 1515 1517 1517 1515 1514 1512 1511 1512 1510 1511 1508
1506 1508 1509 1509 1510 1513 1512 1513 1512 1511 1512 1513 1513 1512 1510 1510 1508 1508 1507 1506 1506 1504
1504 1506 1507 1507 1509 1509 1509 1510 1509 1508 1509 1509 1508 1506 1505 1504 1504 1503 1502 1501 1500 1499
1502 1503 1504 1505 1505 1505 1505 1505 1504 1504 1504 1503 1502 1501 1500 1500 1501 1499 1499 1497 1496 1495
1499 1500 1501 1501 1500 1500 1500 1500 1499 1498 1498 1497 1496 1496 1496 1497 1496 1496 1495 1495 1494 1492
1497 1497 1497 1496 1496 1496 1496 1494 1494 1494 1493 1493 1492 1491 1492 1491 1491 1491 1490 1489 1488 1487
1493 1493 1493 1492 1492 1492 1491 1490 1489 1489 1489 1489 1489 1489 1489 1489 1488 1487 1486 1485 1483 1481
1489 1489 1488 1487 1487 1486 1486 1486 1486 1486 1485 1486 1486 1485 1485 1484 1482 1481 1479 1478 1476 1474
1484 1484 1484 1483 1483 1482 1482 1482 1482 1481 1481 1481 1481 1480 1479 1478 1476 1473 1472 1470 1467 1466
1479 1479 1479 1479 1479 1479 1478 1478 1477 1477 1476 1476 1475 1474 1473 1472 1469 1467 1465 1461 1459 1458